Home   Weather   Barysaw   Past weeks

Flag for Belarus Past Weather in Barysaw, Belarus — Yesterday and Last 2 Weeks

Now
43 °F

Low clouds.


Feels Like: 35 °F
Forecast: 42 / 61 °F
Wind: 15 mph from East

Location: Minsk

Current Time: Apr 28, 2017 at 5:34:37 pm

Latest Report: Apr 28, 2017 at 4:30 pm


Visibility: N/A

Pressure: 29.89 "Hg

Humidity: 100%

Dew Point: 43 °F

Location of BarysawLocation

Past Weather in Barysaw — Graph

°F

Barysaw Temperature Yesterday

Maximum temperature yesterday: 39 °F (at 12:00 am)
Minimum temperature yesterday: 36 °F (at 9:00 am)
Average temperature yesterday: 38 °F

High & Low Weather Summary for the Past Weeks

 TemperatureHumidityPressure
High57 °F (Apr 25, 4:30 pm)100% (Apr 14, 6:00 am)30.42 "Hg (Apr 14, 6:00 am)
Low19 °F (Apr 18, 4:30 am)19% (Apr 24, 2:30 pm)29.39 "Hg (Apr 22, 7:30 am)
Average38 °F74%29.87 "Hg
* Reported Apr 13 4:00 pm — Apr 28 4:00 pm, Barysaw, Weather by CustomWeather, © 2017

Note: Actual official high and low records may vary slightly from our data, if they occured in-between our weather recording intervals... More about our weather records

Advertising

Barysaw Weather History for the Previous 24 Hours

Scroll right to see more
 ConditionsComfort  
Time TempWeatherWind HumidityBarometerVisibility
4:00 pm
Fri, Apr 28
43 °FLow clouds.15 mph100%29.89 "HgN/A
3:30 pm43 °FLow clouds.13 mph100%29.89 "HgN/A
3:00 pm43 °FLow clouds.15 mph93%29.92 "HgN/A
2:30 pm43 °FLow clouds.17 mph93%29.92 "HgN/A
2:00 pm43 °FLow clouds.13 mph93%29.95 "HgN/A
1:30 pm41 °FLow clouds.13 mph100%29.95 "HgN/A
1:17 pm41 °FMostly cloudy.13 mph93%29.98 "Hg5 mi
12:46 pm41 °FLight rain. Fog.13 mph93%29.98 "Hg2 mi
12:42 pm41 °FLight rain. Fog.13 mph93%29.98 "Hg2 mi
12:30 pm41 °FLight rain. Fog.13 mph93%29.98 "Hg2 mi
12:12 pm41 °FLight rain. Fog.13 mph93%30.01 "Hg3 mi
12:00 pm41 °FLight rain. Fog.13 mph93%30.01 "Hg2 mi
11:30 am41 °FLight rain. Fog.13 mph93%30.01 "Hg2 mi
10:30 am39 °FLight rain. Mostly cloudy.10 mph93%30.04 "HgN/A
10:24 am39 °FLight rain. Mostly cloudy.13 mph93%30.04 "HgN/A
10:00 am39 °FLight rain. Overcast.13 mph93%30.04 "HgN/A
9:30 am39 °FLight rain. Clear.10 mph93%30.04 "HgN/A
9:00 am39 °FLight rain. Clear.10 mph87%30.04 "HgN/A
8:30 am37 °FSunny.10 mph93%30.04 "Hg10 mi
8:00 am37 °FSunny.8 mph93%30.04 "Hg10 mi
7:30 am37 °FSunny.6 mph93%30.04 "Hg10 mi
7:00 am37 °FSunny.8 mph93%30.04 "Hg10 mi
6:30 am36 °FClear.8 mph100%30.04 "Hg10 mi
6:00 am36 °FClear.10 mph93%30.04 "Hg10 mi
5:30 am36 °FClear.8 mph93%30.04 "Hg10 mi
5:00 am36 °FPartly cloudy.8 mph93%30.04 "HgN/A
4:30 am34 °FPartly cloudy.8 mph100%30.04 "Hg6 mi
4:00 am36 °FPartly cloudy.8 mph93%30.07 "Hg6 mi
3:30 am36 °FPassing clouds.6 mph100%30.07 "Hg6 mi
3:00 am36 °FPassing clouds.6 mph100%30.07 "Hg6 mi
2:30 am36 °FClear.6 mph100%30.04 "Hg4 mi
2:00 am36 °FClear.6 mph100%30.04 "Hg10 mi
1:30 am36 °FClear.6 mph100%30.04 "Hg10 mi
1:00 am36 °FPartly cloudy.6 mph100%30.04 "HgN/A
12:30 am36 °FPartly cloudy.6 mph100%30.04 "HgN/A
12:00 am37 °FClear.3 mph93%30.04 "Hg10 mi
11:30 pm
Thu, Apr 27
37 °FPassing clouds.6 mph93%30.01 "HgN/A
11:00 pm37 °FPassing clouds.6 mph93%30.01 "HgN/A
10:30 pm37 °FClear.6 mph93%30.01 "Hg10 mi
10:00 pm37 °FPartly cloudy.6 mph93%30.01 "HgN/A
9:30 pm37 °FPartly sunny.8 mph93%30.01 "HgN/A
9:00 pm37 °FPartly sunny.8 mph93%30.01 "HgN/A
8:30 pm37 °FPartly sunny.8 mph93%29.98 "HgN/A
8:00 pm37 °FSprinkles. Low clouds.8 mph93%29.98 "HgN/A
7:30 pm37 °FSprinkles. Low clouds.8 mph93%30.01 "HgN/A
7:00 pm37 °FSprinkles. Low clouds.6 mph93%29.98 "HgN/A
6:30 pm37 °FSprinkles. Mostly cloudy.8 mph93%29.98 "Hg5 mi
6:00 pm37 °FSprinkles. Mostly cloudy.8 mph100%29.98 "HgN/A
5:30 pm39 °FSprinkles. Mostly cloudy.8 mph93%29.98 "HgN/A
5:00 pm39 °FSprinkles. Mostly cloudy.8 mph93%29.98 "HgN/A
Weather by CustomWeather, © 2017

See weather overviewHow to use our weather pages